Location: Sungai Kasap
(2.6333°N, 113.7333°E)
Time: 15:13:16
(UTC+00:00)

Daily predictions for brighter satellites

Satellite Brightness Start Highest point End
(mag) Time Altitude Azimuth Time Altitude Azimuth Time Altitude Azimuth
YAOGAN 1 3.6 12:03:17 10° S 12:07:23 43° WSW 12:11:29 10° NNW
ATLAS 2A CENTAUR R/B 4.1 12:13:42 10° WNW 12:13:43 10° WNW 12:13:43 10° WNW
SL-16 R/B 3.3 12:14:20 10° SSW 12:17:25 34° SSW 12:17:25 34° SSW
ARIANE 5 R/B 3.7 12:17:51 10° W 12:22:59 33° WNW 12:22:59 33° WNW
Cosmos 2297 Rocket 3.6 12:23:08 10° NNW 12:25:44 29° NNW 12:25:44 29° NNW
BLOCK DM-SL 3.8 12:26:25 10° W 12:33:47 77° W 12:33:47 77° W
Ariane H10-3 3.9 12:02:56 10° W 12:47:23 86° WNW 12:47:23 86° WNW
CZ-4C R/B 3.4 12:41:41 10° NNW 12:50:19 67° WSW 12:51:01 64° SW
H-2A ROCKET BODY 4.0 12:38:02 10° SW 13:00:38 55° SSW 13:00:38 55° SSW
Ariane H10+ 4.4 13:01:50 10° W 13:55:33 16° E 14:46:15 10° E
ATLAS 3B CENTAUR R/B 4.0 19:50:05 55° NNW 19:50:05 55° NNW 20:02:50 10° NE
COSMOS 2406 4.2 20:03:56 40° NE 20:03:56 40° NE 20:07:35 10° NNE
SPELTRA 4.0 20:05:36 74° WNW 20:06:24 84° N 20:11:06 10° E
Cosmos 2082 Rocket 2.9 20:06:27 44° SE 20:07:25 49° ESE 20:12:47 10° NNE
Meteor 1-27 Rocket 4.2 20:18:50 10° S 20:24:18 59° E 20:29:51 10° NNE
Ariane H10+ 2.2 20:26:23 76° W 20:26:53 88° S 20:30:44 10° E
H-2A R/B 4.2 20:24:55 10° NNE 20:27:27 34° ENE 20:27:27 34° ENE
VEP-3 2.8 20:28:12 52° SW 20:28:40 54° SSW 20:35:50 10° SE
Meteosat 1 Rocket2 3.9 20:30:27 55° SW 20:32:05 83° SSE 20:37:20 10° ENE
CZ-2C R/B 3.4 20:26:46 10° NNE 20:32:18 68° ESE 20:37:33 10° S
BREEZE-M DEB (TANK) 4.0 20:13:25 10° SW 20:32:51 79° NW 20:37:33 10° NE
Cosmos 614 Rocket 3.9 20:31:34 45° N 20:33:10 81° ENE 20:38:19 10° SSE
Sich 1 3.4 20:31:50 27° NNE 20:34:00 61° E 20:38:13 10° SSE
Cosmos 1461 4.2 20:35:46 21° SSE 20:37:44 34° ESE 20:41:15 10° NE
Cosmos 1153 Rocket 4.3 20:33:16 10° SSW 20:39:18 61° W 20:45:19 10° N
Ariane 44P Rocket 4.2 20:41:16 17° E 20:41:16 17° E 20:41:48 10° E
CZ-3 R/B 4.4 20:30:55 31° W 20:42:49 41° NW 20:53:38 10° NNE
Cosmos 2100 Rocket 4.0 20:36:55 10° S 20:43:07 79° E 20:49:15 10° N
CZ-2C R/B 3.5 20:38:35 10° SSE 20:43:34 48° ENE 20:48:30 10° N
Delta 168 2.7 20:49:45 65° N 20:49:45 65° N 20:53:58 10° ENE
CENTAUR R/B 1.9 20:50:28 48° WSW 20:51:31 58° WNW 20:56:47 10° NNE
Intelsat 5-1 Rocket 3.4 20:45:43 24° WSW 20:52:43 72° SSE 20:57:15 10° ENE
NOSS 3-2 (C) 3.6 20:48:35 10° S 20:53:37 55° ESE 20:58:37 10° NE
ARIANE 5 DEB (SYLDA) 3.9 20:53:07 36° WNW 20:55:27 72° N 21:18:35 10° E
Envisat 3.3 20:52:15 10° N 20:56:57 40° WNW 20:57:14 40° W
SL-24 R/B - RUBIN 2 4.3 20:51:59 10° SSW 20:57:10 63° ESE 21:01:48 10° NNE
NOSS 3-2 (A) 3.2 20:58:07 39° W 20:59:09 44° WNW 21:04:05 10° N
GP-B 4.4 20:57:19 10° SSE 21:01:31 42° E 21:05:40 10° NNE
SJ-6F 4.3 20:58:04 10° N 21:02:11 82° W 21:06:16 10° SSW
GPS 2-15 Rocket1 3.5 21:04:26 27° SW 21:06:57 62° SSE 21:11:43 10° ENE
USA 238 DEB 3.7 21:02:40 10° SSW 21:08:56 75° ESE 21:15:14 10° NNE
USA 238 3.7 21:02:46 10° SSW 21:09:03 74° ESE 21:15:20 10° NNE
Meteor 1-14 Rocket 4.3 21:03:57 10° NNW 21:09:33 53° W 21:15:04 10° S
Ariane H10-3 4.1 21:08:28 19° SW 21:12:10 50° SSE 21:42:25 10° E
Cosmos 1140 Rocket 4.2 21:10:15 10° N 21:15:20 57° ENE 21:20:28 10° SSE
Delta 128 4.1 21:13:22 27° W 21:15:23 45° NNW 21:20:09 10° NE
GPS 2-17 Rocket1 3.7 21:13:47 19° NW 21:17:03 53° NNE 21:21:46 10° E
Okean 1 3.2 21:13:24 10° S 21:17:24 73° W 21:21:24 10° N
Cosmos 1447 Rocket 4.5 21:16:17 10° NNW 21:22:24 61° W 21:28:30 10° S
SJ-12 4.0 21:21:36 10° N 21:25:32 50° WNW 21:29:32 10° SSW
Cosmos 1939 Rocket 3.9 21:21:49 10° NNE 21:25:39 48° E 21:29:27 10° S
Cosmos 1802 Rocket 4.1 21:19:46 10° SSW 21:26:05 59° W 21:32:22 10° N
CZ-2C R/B 3.7 21:23:19 10° NNW 21:26:33 26° WNW 21:29:51 10° SW
Meteor 1-11 Rocket 4.0 21:21:47 10° N 21:27:42 80° E 21:33:34 10° S
ARIANE 5 DEB (SYLDA) 2.9 21:26:16 18° WNW 21:28:11 35° N 21:30:11 10° ENE
Cosmos 1864 Rocket 4.4 21:22:32 10° S 21:28:38 73° W 21:34:46 10° N
Cosmos 1743 2.9 21:25:55 10° N 21:29:42 76° E 21:33:30 10° S
Cosmos 1656 3.9 21:24:42 10° N 21:30:20 75° ENE 21:35:55 10° SSE
OAO 2 Rocket 3.9 21:27:39 16° WNW 21:31:31 43° SW 21:36:33 10° SE
Cosmos 1633 Rocket 3.0 21:27:58 10° NNW 21:32:14 64° W 21:36:32 10° S
ARIANE 5 R/B 0.6 21:35:14 18° W 21:36:30 69° S 21:39:02 10° E
Cosmos 1378 3.4 21:33:15 10° SSW 21:36:42 42° W 21:40:08 10° NNW
OAO 3 Copernicus 4.5 21:33:58 10° NW 21:39:01 75° NE 21:44:04 10° ESE
Aurora 2 Rocket 4.4 21:33:13 10° SW 21:40:45 74° SSE 21:50:52 10° ENE
Cosmos 1666 Rocket 4.1 21:36:44 10° NNW 21:40:50 36° W 21:44:57 10° SSW
Cosmos 2233 Rocket 4.1 21:37:23 10° S 21:43:40 86° E 21:49:59 10° N
Cosmos 407 Rocket 3.5 21:39:03 10° NNW 21:44:21 74° WSW 21:49:41 10° S
Cosmos 1725 Rocket 4.1 21:38:23 10° SSW 21:44:27 53° W 21:50:33 10° N
Intercosmos 24 Rocket 4.3 21:42:08 10° NNW 21:45:46 51° W 21:49:14 10° S
Kakehashi 4.1 21:40:17 10° WSW 21:45:56 77° NNW 21:57:48 10° NE
Meteor 2-4 Rocket 3.9 21:41:31 10° S 21:47:28 85° W 21:53:21 10° N
H-2A R/B 3.1 21:42:39 10° NNE 21:47:56 53° ESE 21:53:07 10° S
Spelda 2.7 21:45:48 10° W 21:48:12 90° SSE 21:52:00 10° E
Cosmos 2082 Rocket 3.9 21:50:05 10° W 21:51:14 11° WNW 21:52:24 10° WNW
Cosmos 1331 Rocket 4.4 21:48:27 10° SSW 21:53:16 40° WNW 21:58:03 10° N
